Location: Cuiry
(49.3858°N, 3.7708°E)
Time: 14:54:16
(UTC+00:00)

USA 238 DEB - Visible Passes

Search period start: 19 April 2026 00:00
Search period end: 29 April 2026 00:00
Orbit: 883 x 1328 km, 63.4° (Epoch: 10 January)

Date Brightness Start Highest point End Pass type
(mag) Time Alt. Az. Time Alt. Az. Time Alt. Az.
19 Apr 4.1 19:04:06 10° NW 19:11:27 82° NE 19:19:31 10° SE visible
19 Apr 5.3 20:55:36 10° WNW 21:01:57 30° WSW 21:08:23 11° S visible
20 Apr 4.9 20:10:14 10° NW 20:17:13 44° WSW 20:24:43 10° S visible
21 Apr 4.5 19:25:04 10° NW 19:32:21 62° SW 19:40:16 10° SSE visible
21 Apr 6.1 21:18:01 10° WNW 21:22:11 16° WSW 21:26:28 10° SW visible
22 Apr 5.8 20:31:51 10° WNW 20:37:38 24° WSW 20:43:43 10° SSW visible
23 Apr 5.3 19:46:19 10° NW 19:52:58 36° WSW 20:00:05 10° S visible
24 Apr 6.4 20:55:29 10° W 20:57:44 11° WSW 21:00:02 10° WSW visible
25 Apr 6.2 20:08:19 10° WNW 20:13:17 19° WSW 20:18:28 10° SSW visible
26 Apr 5.8 19:22:29 10° WNW 19:28:42 29° WSW 19:35:16 10° SSW visible
28 Apr 6.4 19:45:07 10° WNW 19:48:53 14° WSW 19:52:45 10° SW visible
